Погода в Озинках

Россия / Саратовская область     51°11′56″N   49°43′45″E
темп.,
°C
ветер,
м/с
пор.,
м/с
влажн.,
%
обл.,
%
осадки,
мм/ч
давл.,
гПа
погр.,
м
18 мая, ср
ср1801:00+7юз47795 0.0 1005112
04:00+7зюз4985100 0.0 1005249
07:00+8зюз81281100 0.0 1005772
10:00+13з10145889 0.0 10051736
13:00+13з101266100 0.4 10061445
16:00+12з8116776 1.3 10081178
19:00+13зсз610639 0.3 1009971
22:00+9з47815 0.3 1011115
19 мая, чт
чт1901:00+8з3481100 0.0 101264
04:00+7зюз3381100 0.0 101237
07:00+10юз467460 0.0 1013249
10:00+14зюз565791 0.1 10131297
13:00+17з5643100 0.1 10122209
16:00+16зсз4654100 0.1 1012923
19:00+15зюз5761100 0.1 1012462
22:00+12зсз2272100 0.2 101225
20 мая, пт
пт2001:00+11зюз1172100 0.0 101012
04:00+10зсз2276100 0.1 100921
07:00+9ссз3382100 0.3 1009198
10:00+9с4485100 1.8 1009435
13:00+12ссз4765100 1.6 10081259
16:00+12сз10105540 1.9 10081581
19:00+10сз911555 0.1 10091422
22:00+6сз813715 0.1 1010895
21 мая, сб
сб2101:00+5сз713785 0.0 1010600
04:00+4сз612840 0.0 1010387
07:00+6сз710760 0.0 1011553
10:00+9сз78545 0.0 10101397
13:00+12сз5639100 0.0 10092592
16:00+13зсз4539100 0.0 10082208
19:00+12сз344699 0.0 1007716
22:00+8зсз22545 0.0 100611
22 мая, вс
вс2201:00+6ссз22735 0.0 100615
04:00+5ссз33855 0.0 100640
07:00+7сз4574100 0.0 1007323
10:00+10сз585373 0.0 10061769
13:00+12сз7939100 0.0 10062373
16:00+13сз774198 0.0 10061977
19:00+11сз4550100 0.0 10071079
22:00+7в336599 0.0 100840